Regional Weather Roundup
Issued by NWS

Home | Current Version | Previous Version | Graphics & Text | Print | Product List | Glossary On
Versions: 1 2 3 4 5 6 7 8 9 10 11 12 13 14 15 16 17 18 19 20 21 22 23 24 25 26 27 28 29 30 31 32 33 34 35 36 37 38 39 40 41 42 43 44 45 46 47 48 49 50
338
ASUS43 KDTX 230101
RWRMI
MICHIGAN HOURLY REGIONAL WEATHER ROUNDUP
NATIONAL WEATHER SERVICE DETROIT/PONTIAC MI
900 PM EDT THU JUN 22 2017

NOTE: "FAIR" INDICATES FEW OR NO CLOUDS BELOW 12,000 FEET WITH NO
SIGNIFICANT WEATHER AND/OR OBSTRUCTION TO VISIBILITY.

MIZ047>049-052>055-059>063-066>070-074>076-081>083-230200-
SOUTHEAST LOWER MICHIGAN

CITY           SKY/WX    TMP DP  RH WIND       PRES   REMARKS
ADRIAN         CLOUDY    79  70  74 SW13      29.81S
ALMA           LGT RAIN  74  71  89 SW3       29.75S
BAD AXE        LGT RAIN  76  68  77 CALM      29.76R
CARO           MOCLDY    76  74  95 CALM      29.75R
DETROIT CITY   HVY RAIN  73  71  93 W14       29.81F FOG
DETROIT        LGT RAIN  72  69  90 VRB6      29.82S FOG
FLINT          CLOUDY    80  68  66 SW7       29.77R
GROSSE ILE     CLOUDY    72  70  94 CALM      29.80S
HILLSDALE      RAIN      77  68  73 SW8       29.81S
HOWELL         RAIN      71  64  79 SW5       29.80R

CITY           SKY/WX    TMP DP  RH WIND       PRES   REMARKS
JACKSON        LGT RAIN  74  70  87 CALM      29.80F
LAMBERTVILLE   CLOUDY    77  70  80 SW6       29.82R
LANSING        LGT RAIN  77  71  82 SW8       29.78R
LAPEER         CLOUDY    80  65  60 SW7       29.78R
MASON          HVY RAIN  72  69  92 SW6G22    29.79F
MONROE         CLOUDY    72  71  96 CALM      29.75F
MT. CLEMENS    SHOWER    73  69  87 SW16G25   29.80R
PONTIAC        CLOUDY    77  67  71 S17G31    29.79R
PORT HOPE        N/A     78  64  61 VRB3      29.73R
PORT HURON     CLOUDY    79  64  61 S21G32    29.79R
TRI CITIES     CLOUDY    78  71  79 W6        29.75R
MIDLAND        FAIR      76  69  78 CALM      29.74S
TROY           HVY RAIN  72  68  87 SW9G17    29.84R
SAGINAW HB     MOCLDY    79  64  61 SW8       29.74R
$$
MIZ043>046-050>051-056>058-064>065-071>073-077>080-230200-
SOUTHWEST LOWER MICHIGAN

CITY           SKY/WX    TMP DP  RH WIND       PRES   REMARKS
BATTLE CREEK   MOCLDY    79  71  76 SW14      29.78S
BENTON HARBOR  CLOUDY    81  69  67 S12G20    29.73F
BIG RAPIDS     CLOUDY    75  67  75 W7        29.74F
COLDWATER      CLOUDY    76  72  88 S3        29.80R
FREMONT        CLOUDY    74  71  88 W6        29.74F
HOLLAND        CLOUDY    74  69  85 S7        29.74F
GRAND RAPIDS   LGT RAIN  74  72  93 S8        29.75S
IONIA          RAIN      74  71  91 SW9       29.77R
KALAMAZOO      MOCLDY    78  68  71 S12G21    29.77S
LUDINGTON      CLOUDY    69  67  93 CALM      29.71F
MARSHALL       CLOUDY    76  75  98 S5        29.78F
MOUNT PLEASANT CLOUDY    74  67  78 CALM      29.73F
MUSKEGON       CLOUDY    75  67  76 W7        29.73F
SOUTH HAVEN    CLOUDY    78  73  84 S5        29.74S
$$
MIZ016>042-230200-
NORTHERN LOWER MICHIGAN

CITY           SKY/WX    TMP DP  RH WIND       PRES   REMARKS
ALPENA         CLOUDY    71  68  90 CALM      29.71R
BELLAIRE       CLOUDY    69  65  85 S5        29.72S
CADILLAC       MOCLDY    70  64  80 W3        29.76S
CHARLEVOIX     CLOUDY    64  64 100 W10       29.75R
FRANKFORT      LGT RAIN  66  62  85 CALM      29.72F
GAYLORD        CLOUDY    69  63  81 SW14      29.74S
GRAYLING       CLOUDY    71  65  82 SW6       29.76S
HARBOR SPRINGS CLOUDY    64  64 100 W3        29.72S
HOUGHTON LAKE  CLOUDY    73  65  75 W7        29.76S
MANISTEE       CLOUDY    66  65  96 SE3       29.72F
OSCODA         CLOUDY    73  69  89 SW6       29.72S
PELLSTON       PTCLDY    64  61  90 W5        29.72R
ROGERS CITY    CLOUDY    66  64  94 CALM      29.72R
TRAVERSE CITY  CLOUDY    72  64  76 W7        29.72R
$$
MIZ007>008-015-230200-
EASTERN UPPER MICHIGAN

CITY           SKY/WX    TMP DP  RH WIND       PRES   REMARKS
KINROSS        CLOUDY    64  62  93 W6        29.69S
MACKINAC ISLAN CLOUDY    60  60 100 SW10      29.70F FOG
NEWBERRY       CLOUDY    64  63  97 SW7       29.68S
S. S. MARIE    CLOUDY    67  64  90 SW5       29.67R
MUNISING         N/A     59  58  96 CALM      29.68R
$$
MIZ004>006-011>014-085-230200-
CENTRAL UPPER MICHIGAN

CITY           SKY/WX    TMP DP  RH WIND       PRES   REMARKS
MANISTIQUE     CLOUDY    60  57  89 SW6       29.69R FOG
ESCANABA       CLOUDY    68  66  93 CALM      29.68R
MENOMINEE      CLOUDY    67  66  97 N5        29.71R
SAWYER-GWINN   MOCLDY    66  61  82 W5        29.70S
$$
MIZ001>003-009>011-084-230200-
WESTERN UPPER MICHIGAN

CITY           SKY/WX    TMP DP  RH WIND       PRES   REMARKS
IRON MOUNTAIN  CLOUDY    67  61  81 CALM      29.69F
HOUGHTON       CLEAR     69  47  45 W9        29.66R
COPPER HARBOR    N/A     71  48  43 VRB7      29.64R
IRONWOOD       CLEAR     70  53  54 SW7       29.70S
$$

ABBREVIATIONS USED IN REMARKS
   TC - TEMPERATURE IN CELSIUS
  WCI - WIND CHILL INDEX
   HX - HEAT INDEX
  VSB - VISIBILITY





USA.gov is the U.S. government's official web portal to all federal, state and local government web resources and services.